Regional Weather Roundup
Issued by NWS

Home | Current Version | Previous Version | Text Only | Print | Product List | Glossary Off
Versions: 1 2 3 4 5 6 7 8 9 10 11 12 13 14 15 16 17 18 19 20 21 22 23 24 25 26 27 28 29 30 31 32 33 34 35 36 37 38 39 40 41 42 43 44 45 46 47 48 49 50

000
ASUS43 KMKX 071111
RWRWI

WISCONSIN REGIONAL WEATHER ROUNDUP
NATIONAL WEATHER SERVICE MILWAUKEE/SULLIVAN WI
500 AM CST SUN FEB 07 2016

NOTE: "FAIR" INDICATES FEW OR NO CLOUDS BELOW 12,000 FEET WITH NO
SIGNIFICANT WEATHER AND/OR OBSTRUCTIONS TO VISIBILITY.

WIZ001-002-006>008-014>016-023>028-071200-
NORTHWEST WISCONSIN

CITY           SKY/WX    TMP DP  RH WIND       PRES   REMARKS
SUPERIOR ARPT  CLOUDY    32  29  89 SW7       29.52F WCI  26
ASHLAND        MOCLDY    32  28  85 S12       29.54F WCI  23
HAYWARD        CLOUDY    31  26  82 S12       29.54F WCI  22
SIREN          CLOUDY    33  30  88 SW10G17   29.57F WCI  25
CUMBERLAND     MOCLDY    30  28  93 S9        29.59S WCI  22
RICE LAKE      CLOUDY    32  29  88 S9        29.62S WCI  24
CHETEK         CLOUDY    32  29  90 S6        29.61F WCI  26
LADYSMITH      LGT SNOW  31  29  90 S7        29.62F WCI  25
EAU CLAIRE     MOCLDY    30  25  81 S8        29.64F WCI  22
MENOMONIE      PTCLDY    30  25  82 S6        29.65F WCI  24
NEW RICHMOND   CLEAR     29  25  85 S9        29.62S WCI  21
OSCEOLA        PTCLDY    32  28  85 SW10      29.64S WCI  23
$$

WIZ003>005-009-010-017-018-071200-
NORTH CENTRAL WISCONSIN

CITY           SKY/WX    TMP DP  RH WIND       PRES   REMARKS
MANITOWISH WTR CLOUDY    29  28  96 SW10      29.59F WCI  19
ARBOR VITAE    CLOUDY    32  29  90 SW10      29.60F WCI  23
WOODRUFF       CLOUDY    32  29  90 SW10      29.60F WCI  23
RHINELANDER    CLOUDY    29  26  89 SW12      29.62F WCI  19
EAGLE RIVER    CLOUDY    29  26  89 SW8       29.61F WCI  21
LAND O LAKES   CLOUDY    29  27  92 SW8       29.60F WCI  21
PHILLIPS       CLOUDY    30  28  92 S8        29.59F WCI  22
TOMAHAWK       CLOUDY    29  27  91 CALM      29.64F
MEDFORD        LGT SNOW  30  29  97 S8        29.63F WCI  22
MERRILL        CLOUDY    30  28  92 S6        29.66F WCI  24
$$

WIZ029-030-035-036-043>047-071200-
CENTRAL WISCONSIN

CITY           SKY/WX    TMP DP  RH WIND       PRES   REMARKS
WAUSAU         CLOUDY    32  28  85 S6        29.65F WCI  26
MOSINEE        NOT AVBL
MARSHFIELD     CLOUDY    32  26  78 SW9       29.65F WCI  24
STEVENS POINT  CLOUDY    30  27  88 S7        29.69F WCI  24
WAUPACA        CLOUDY    35  30  81 S6        29.71F WCI  30
WAUTOMA        CLOUDY    35  31  86 CALM      29.72F
WISC RAPIDS    CLOUDY    32  27  81 S8        29.70F WCI  25
CAMP DOUGLAS   CLOUDY    36  36  99 SW8       29.69F WCI  30
$$

WIZ011>013-019>022-031-037>040-048>050-071200-
NORTHEAST WISCONSIN

CITY           SKY/WX    TMP DP  RH WIND       PRES   REMARKS
ANTIGO         CLOUDY    29  28  94 SW9       29.65F WCI  21
SHAWANO        CLOUDY    34  29  83 SW6       29.71S WCI  29
OCONTO         CLOUDY    33  30  89 S7        29.71F WCI  27
STURGEON BAY   CLOUDY    34  28  80 S13       29.74F WCI  25
GREEN BAY      CLOUDY    36  30  79 S14       29.72F WCI  27
MANITOWOC      CLOUDY    34  30  85 S10       29.76F WCI  26
APPLETON       NOT AVBL
CLINTONVILLE   CLOUDY    34  28  80 SW8       29.71S WCI  27
OSHKOSH        CLOUDY    36  29  75 SW14      29.73F WCI  27
$$

WIZ032>034-041-042-053>061-071200-
SOUTHWEST WISCONSIN

CITY           SKY/WX    TMP DP  RH WIND       PRES   REMARKS
LA CROSSE      CLOUDY    36  28  73 S10       29.71F WCI  28
SPARTA         CLOUDY    36  30  80 SW5       29.71F WCI  32
VIROQUA        CLOUDY    34  30  84 SW12G18   29.71F WCI  26
BOSCOBEL       CLOUDY    39  31  72 W12       29.77S WCI  32
PRAIRIE DU CHI CLOUDY    37  28  70 W7        29.77R WCI  32
PLATTEVILLE    CLOUDY    36  31  82 SW15      29.78F WCI  27
$$

WIZ056-057-062-063-064-067-068-071200-
SOUTH CENTRAL WISCONSIN

CITY           SKY/WX    TMP DP  RH WIND       PRES   REMARKS
REEDSBURG      CLOUDY    36  30  79 W9        29.74S WCI  29
BARABOO/DELLS  CLOUDY    36  29  75 SW16G22   29.70F WCI  26
LONE ROCK      CLOUDY    38  29  70 SW10      29.75F WCI  31
MINERAL POINT  CLOUDY    37  32  81 SW16      29.75F WCI  28
MADISON        CLOUDY    37  29  72 SW10      29.77F WCI  30
MIDDLETON      CLOUDY    38  30  73 SW14G20   29.76F WCI  30
WATERTOWN      CLOUDY    37  31  80 S16G22    29.77F WCI  27
MONROE         CLOUDY    34  32  93 S20       29.78F WCI  22
JANESVILLE     MOCLDY    37  32  81 S16       29.81F WCI  28
$$

WIZ051-052-058>065-066-070>072-071200-
SOUTHEAST WISCONSIN

CITY           SKY/WX    TMP DP  RH WIND       PRES   REMARKS
MILWAUKEE      MOCLDY    36  29  75 S8        29.82F WCI  30
WAUKESHA       PTCLDY    34  28  80 S7        29.81F WCI  28
MILWAUKEE/TIMM CLOUDY    34  28  80 S13       29.81F WCI  25
RACINE         CLOUDY    38  28  67 SW16      29.85F WCI  29
BURLINGTON     PTCLDY    34  28  80 S14       29.82F WCI  25
KENOSHA        MOCLDY    37  29  72 S16       29.85F WCI  28
FOND DU LAC    CLOUDY    38  29  70 S17G29    29.72F WCI  28
SHEBOYGAN      CLOUDY    34  29  82 S10       29.76F WCI  26
WEST BEND      CLOUDY    36  30  80 S9        29.77F WCI  29
JUNEAU         CLOUDY    36  30  78 S17       29.77F WCI  26
$$

LSZ147-162-071200-
LAKE SUPERIOR

STATION/POSITION TIME  TEMP    WIND        PRES    WAVE
                       AIR SEA DIR/SP/G            HT/PER
                 (UTC) (F)     (DEG/KT/KT) (MB)    (FT/S)
DEVILS ISLAND    1100   32     180/  7/ 10 1000.6F
PORT WING        0900          190/ 10/ 12 1002.0F
SAXON HARBOR     1040   34                 1000.0F
$$

LMZ867-665-643>646-071200-
LAKE MICHIGAN

STATION/POSITION TIME  TEMP    WIND        PRES    WAVE
                       AIR SEA DIR/SP/G            HT/PER
                 (UTC) (F)     (DEG/KT/KT) (MB)    (FT/S)
CHAMBERS ISLAND  1000   31     160/  6/ 10 1007.1F
ALGOMA LAKESHORE 1026          220/ 22/ 25   N/A
KEWAUNEE LAKESHO 1000   34     190/ 17/ 18 1007.7F
SHEBOYGAN LAKESH 1100   35     190/ 21/ 23 1008.6F
PORT WASHINGTON  1040   36     200/  7/ 12 1009.8F
MILWAUKEE LAKESH 1010   37     210/ 10/ 11   N/A
KENOSHA   LAKESH 1100   38     200/ 10/ 15 1010.8F
$$

TC  - TEMPERATURE IN CELSIUS
VSB - VISIBILITY IN STATUTE MILES
WCI - WIND CHILL INDEX
HX  - HEAT INDEX




USA.gov is the U.S. government's official web portal to all federal, state and local government web resources and services.